This is the latest recevied weather packets stored in our database for station/object KR4KUV. If no packets are shown the sender has not sent any weather packets the latest 10 day(s).
| Time | Temp. | Humidity | Pressure | Rain* | Wind** | Luminosity | Snow |
|---|---|---|---|---|---|---|---|
| 1787448729 | 22.22° C | 98% | 1016.2 hPa | 0 mm | - | 0 W/m² | - |
| 1787448426 | 22.22° C | 98% | 1016.4 hPa | 0 mm | - | 0 W/m² | - |
| 1787448122 | 22.78° C | 98% | 1016.1 hPa | 0 mm | - | 0 W/m² | - |
| 1787447821 | 22.78° C | 97% | 1016.3 hPa | 0 mm | - | 0 W/m² | - |
| 1787447516 | 22.78° C | 97% | 1015.8 hPa | 0 mm | - | 0 W/m² | - |
| 1787447212 | 22.78° C | 97% | 1015.9 hPa | 0 mm | - | 0 W/m² | - |
| 1787446909 | 22.78° C | 97% | 1016.2 hPa | 0 mm | - | 0 W/m² | - |
| 1787446608 | 22.78° C | 97% | 1016.1 hPa | 0 mm | - | 0 W/m² | - |
| 1787446304 | 22.78° C | 96% | 1016.2 hPa | 0 mm | - | 0 W/m² | - |
| 1787446000 | 23.33° C | 96% | 1016.2 hPa | 0 mm | - | 0 W/m² | - |
| 1787445696 | 23.33° C | 95% | 1015.9 hPa | 0 mm | - | 0 W/m² | - |
| 1787445392 | 23.33° C | 95% | 1015.9 hPa | 0 mm | - | 0 W/m² | - |
| 1787445087 | 23.33° C | 95% | 1015.8 hPa | 0 mm | - | 0 W/m² | - |
| 1787444782 | 23.89° C | 94% | 1015.8 hPa | 0 mm | - | 0 W/m² | - |
| 1787444474 | 23.89° C | 92% | 1015.8 hPa | 0 mm | - | 0 W/m² | - |
| 1787444168 | 24.44° C | 92% | 1015.8 hPa | 0 mm | - | 0 W/m² | - |
| 1787443868 | 24.44° C | 91% | 1015.5 hPa | 0 mm | - | 1 W/m² | - |
| 1787443567 | 25° C | 91% | 1015.4 hPa | 0 mm | - | 2 W/m² | - |
| 1787443257 | 25° C | 90% | 1015.6 hPa | 0 mm | - | 3 W/m² | - |
| 1787442956 | 25° C | 89% | 1015.4 hPa | 0 mm | - | 5 W/m² | - |
| 1787442653 | 25.56° C | 88% | 1015.5 hPa | 0 mm | - | 9 W/m² | - |
| 1787442349 | 25.56° C | 87% | 1015.3 hPa | 0 mm | - | 17 W/m² | - |
| 1787442049 | 25.56° C | 87% | 1015.3 hPa | 0 mm | - | 27 W/m² | - |
| 1787441749 | 25.56° C | 87% | 1015.3 hPa | 0 mm | - | 37 W/m² | - |
| 1787441444 | 25.56° C | 87% | 1015.2 hPa | 0 mm | - | 39 W/m² | - |
* Rain latest hour (hover to see other rain measurements)
** Current wind speed in m/s (hover to see current wind gust speed)